This is the latest recevied weather packets stored in our database for station/object DJ0JJ-11. If no packets are shown the sender has not sent any weather packets the latest 10 day(s).
| Time | Temp. | Humidity | Pressure | Rain* | Wind** | Luminosity | Snow |
|---|---|---|---|---|---|---|---|
| 1777767235 | 15.56° C | 65% | 1017.3 hPa | - | - | - | - |
| 1777766335 | 16.11° C | 63% | 1017.4 hPa | - | - | - | - |
| 1777765435 | 15.56° C | 66% | 1017.3 hPa | - | - | - | - |
| 1777764535 | 16.11° C | 62% | 1017.6 hPa | - | - | - | - |
| 1777763635 | 16.11° C | 64% | 1017.7 hPa | - | - | - | - |
| 1777762734 | 17.22° C | 59% | 1017.7 hPa | - | - | - | - |
| 1777761834 | 16.67° C | 61% | 1017.6 hPa | - | - | - | - |
| 1777760934 | 17.78° C | 57% | 1017.6 hPa | - | - | - | - |
| 1777760034 | 17.78° C | 57% | 1017.6 hPa | - | - | - | - |
| 1777759134 | 17.78° C | 58% | 1017.5 hPa | - | - | - | - |
| 1777758234 | 18.33° C | 58% | 1017.5 hPa | - | - | - | - |
| 1777757334 | 18.33° C | 57% | 1017.4 hPa | - | - | - | - |
| 1777756433 | 18.33° C | 60% | 1017.3 hPa | - | - | - | - |
| 1777755533 | 17.22° C | 62% | 1017.4 hPa | - | - | - | - |
| 1777754633 | 20° C | 53% | 1017.2 hPa | - | - | - | - |
| 1777753733 | 20° C | 53% | 1017.3 hPa | - | - | - | - |
| 1777752833 | 18.89° C | 56% | 1017.4 hPa | - | - | - | - |
| 1777751933 | 20.56° C | 51% | 1017.4 hPa | - | - | - | - |
| 1777751033 | 21.11° C | 53% | 1017.4 hPa | - | - | - | - |
| 1777750132 | 21.11° C | 52% | 1017.3 hPa | - | - | - | - |
| 1777749232 | 21.11° C | 54% | 1017.1 hPa | - | - | - | - |
| 1777748332 | 20.56° C | 57% | 1016.9 hPa | - | - | - | - |
| 1777747432 | 21.11° C | 53% | 1016.9 hPa | - | - | - | - |
| 1777746532 | 23.89° C | 45% | 1016.8 hPa | - | - | - | - |
| 1777745632 | 24.44° C | 41% | 1016.8 hPa | - | - | - | - |
* Rain since midnight (hover to see other rain measurements)
** Current wind speed in m/s (hover to see current wind gust speed)